Home > Weather > Santa Maria > Past weeks

Flag for Cabo Verde Past Weather in Santa Maria, Cabo Verde — Yesterday and Last 2 Weeks

Now
86 °F

Passing clouds.


Feels Like: 87 °F
Forecast: 73 / 83 °F
Wind: 10 mph from Northeast

Location: Sal

Current Time: Jul 1, 2016 at 4:09:33 PM

Latest Report: Jul 1, 2016 at 3:00 PM


Visibility: N/A

Pressure: 30.01 "Hg

Humidity: 49%

Dew Point: 64 °F

Location of Santa MariaLocation

Past Weather in Santa Maria — Graph

°F

Santa Maria Temperature Yesterday

Maximum temperature yesterday: 82 °F (at 1:00 PM)
Minimum temperature yesterday: 72 °F (at 4:00 AM)
Average temperature yesterday: 77 °F

High & Low Weather Summary for the Past Weeks

 TemperatureHumidityPressure
High86 °F (Jun 26, 1:00 PM)94% (Jun 21, 5:00 AM)30.09 "Hg (Jun 21, 5:00 AM)
Low70 °F (Jun 18, 4:00 AM)49% (Jul 1, 3:00 PM)29.92 "Hg (Jun 21, 5:00 AM)
Average77 °F71%30.00 "Hg
* Reported Jun 16 3:00 PM — Jul 1 3:00 PM, Santa Maria, Weather by CustomWeather, © 2016

Note: Actual official high and low records may vary slightly from our data, if they occured in-between our weather recording intervals... More about our weather records

Advertising

Santa Maria Weather History for the Previous 24 Hours

Scroll right to see more
 ConditionsComfort  
Time TempWeatherWind HumidityBarometerVisibility
3:00 PM
Fri, Jul 1
86 °FPassing clouds.10 mph49%30.01 "HgN/A
2:00 PM84 °FPassing clouds.13 mph58%30.04 "HgN/A
1:00 PM82 °FPartly sunny.14 mph66%30.07 "HgN/A
12:00 PM82 °FPartly sunny.15 mph66%30.07 "HgN/A
11:00 AM81 °FPartly sunny.15 mph66%30.07 "HgN/A
10:00 AM79 °FPartly sunny.15 mph74%30.09 "HgN/A
9:00 AM77 °FPartly sunny.14 mph79%30.07 "HgN/A
8:00 AM75 °FPartly sunny.14 mph83%30.07 "HgN/A
7:00 AM73 °FPartly sunny.14 mph89%30.04 "HgN/A
6:00 AM73 °FPartly sunny.14 mph83%30.01 "HgN/A
5:00 AM73 °FPartly sunny.10 mph89%30.01 "Hg6 mi
4:00 AM73 °FPassing clouds.10 mph89%30.01 "Hg6 mi
3:00 AM73 °FPassing clouds.12 mph89%30.01 "Hg6 mi
2:00 AM73 °FPassing clouds.15 mph89%30.01 "Hg6 mi
1:00 AM73 °FPassing clouds.13 mph89%30.01 "Hg6 mi
12:00 AM75 °FPassing clouds.9 mph83%30.04 "HgN/A
11:00 PM
Thu, Jun 30
75 °FPassing clouds.10 mph83%30.07 "HgN/A
10:00 PM75 °FPassing clouds.10 mph83%30.09 "HgN/A
9:00 PM75 °FPassing clouds.13 mph78%30.07 "HgN/A
8:00 PM75 °FPassing clouds.12 mph78%30.07 "HgN/A
7:00 PM77 °FPassing clouds.12 mph74%30.01 "HgN/A
6:00 PM79 °FPassing clouds.12 mph70%29.98 "HgN/A
5:00 PM81 °FPartly sunny.13 mph66%29.98 "HgN/A
4:00 PM81 °FPartly sunny.16 mph62%30.01 "HgN/A
Weather by CustomWeather, © 2016

See weather overviewHow to use our weather pages